Location: Caltech
(34.1382°N, 118.1253°W)
Time: 13:00:42
(UTC-07:00)

Iridium 65 - Visible Passes

Search period start: 20 September 2014 00:00
Search period end: 30 September 2014 00:00
Orbit: 776 x 779 km, 86.4° (Epoch: 20 September)

Date Brightness Start Highest point End Pass type
(mag) Time Alt. Az. Time Alt. Az. Time Alt. Az.
20 Sep 5.5 19:29:51 10° S 19:34:58 63° E 19:40:07 10° N visible
20 Sep 8.7 21:14:17 10° W 21:16:06 12° WNW 21:17:55 10° NW visible
21 Sep 8.9 06:05:45 10° NE 06:08:22 14° ENE 06:10:58 10° ESE visible
21 Sep 7.9 20:38:12 10° SW 20:42:17 23° W 20:46:23 10° NNW visible
22 Sep 6.7 20:03:40 10° SSW 20:08:36 44° W 20:13:34 10° NNW visible
23 Sep 5.6 19:29:50 10° S 19:35:02 87° W 19:40:16 10° N visible
24 Sep 8.6 06:04:46 10° NNE 06:08:38 21° E 06:12:28 10° SE visible
24 Sep 8.5 20:39:30 10° WSW 20:42:32 16° WNW 20:45:35 10° NW visible
25 Sep 9.3 05:34:07 10° ENE 05:34:48 10° ENE 05:35:29 10° E visible
25 Sep 7.6 20:04:17 10° SW 20:08:47 30° W 20:13:19 10° NNW visible
26 Sep 6.3 19:30:03 10° SSW 19:35:09 58° W 19:40:17 10° N visible
27 Sep 7.8 06:04:17 10° NNE 06:08:52 30° E 06:13:24 10° SE visible
28 Sep 8.7 05:31:58 10° NE 05:35:06 16° ENE 05:38:14 10° ESE visible
28 Sep 8.3 20:05:14 10° SW 20:09:00 20° W 20:12:48 10° NNW visible
29 Sep 7.2 19:30:29 10° SSW 19:35:18 38° W 19:40:08 10° NNW visible
